Location: Unspecified
(47.5840°N, 122.3000°W)
Time: 18:13:55
(UTC+00:00)

IRIDIUM 114 - Pass Details

Date: 17 March 2026
Orbit: 776 x 779 km, 86.4° (Epoch: 14 April)

Event Time Altitude Azimuth Distance (km) Brightness Sun altitude
Exits shadow 04:49:58 44° 41° (NE) 1,069 4.9 -25.7°
Drops below altitude 10° 04:53:50 10° 12° (NNE) 2,342 7.0 -26.2°
Sets 04:56:13 0° 8° (N) 3,274 7.9 -26.6°
